Погода в Горно-Алтайске

Россия / Республика Алтай     51°57′29″N   85°57′37″E
темп.,
°C
ветер,
м/с
пор.,
м/с
влажн.,
%
обл.,
%
осадки,
мм/ч
давл.,
гПа
погр.,
м
2 марта, вт
вт201:00−1ююз3972100 0.4 1013349
04:00−2ююз41174100 0.1 1013329
07:00−3зюз138398 0.1 101470
10:00−2зюз31378100 0.0 10141330
13:00−2зсз3694100 0.3 1015525
16:00−3ссз2493100 0.8 1015454
19:00−6с1197100 1.1 101621
22:00−6в1197100 1.1 101621
3 марта, ср
ср301:00−6в1197100 2.2 101521
04:00−7юв1197100 0.6 101421
07:00−6юз1197100 1.1 101627
10:00−5сз2296100 0.8 1017174
13:00−5ссз2294100 1.4 1018253
16:00−6сз3692100 0.5 1019588
19:00−8сз1397100 1.1 1023138
22:00−10св1197100 0.4 102621
4 марта, чт
чт401:00−11св1197100 0.7 102822
04:00−15юв129562 0.0 102920
07:00−15ююв228731 0.0 103023
10:00−10ю248059 0.0 1029160
13:00−4ююв257280 0.0 1026368
16:00−1ю147099 0.0 1023521
19:00−5юв117894 0.0 102421
22:00−8ююв238173 0.0 102523
5 марта, пт
пт501:00−9ююв338074 0.0 102441
04:00−10ю337941 0.0 102239
07:00−11ююв338045 0.0 102036
10:00−6ю357897 0.0 1016174
13:00−3ююз248298 0.6 1017264
16:00−2юз2595100 1.4 1020379
19:00−4з378183 1.9 1026117
22:00−7ююв22834 0.0 102921
6 марта, сб
сб601:00−8ю228241 0.0 103029
04:00−7ю2380100 0.0 102955
07:00−8ю237999 0.0 102849
10:00−5ю2679100 0.0 1026215
13:000ююз2673100 0.0 1023465
16:00+1зсз0291100 0.0 1020149
19:00−5с0190100 0.0 102021
22:00−6ю228449 0.0 102123